Flag for U.S.A. Weather past 2 weeks in Wichita Falls, Texas, U.S.A.

Now
19 °F

Snow. Low clouds.


Feels Like: 3 °F
Forecast: 15 / 29 °F
Wind: 21 mph from Northeast

Location: Wichita Falls - Sheppard Air Force Base

Current Time: Feb 27, 2015 at 11:28:15 AM

Latest Report: Feb 27, 2015 at 10:52 AM


Visibility: 0 mi

Pressure: 30.55 "Hg

Humidity: 81%

Dew point: 14 °F

Location of Wichita FallsLocation

Historic Weather in Wichita Falls — Graph

°F

Wichita Falls temperature yesterday

Maximum temperature yesterday: 42 °F (at 12:52 AM)
Minimum temperature yesterday: 27 °F (at 7:52 AM)
Average temperature yesterday: 31 °F

Past Weeks' High & Low Weather Summary

 TemperatureHumidityPressure
High79 °F (Feb 14, 2:52 PM)96% (Feb 20, 6:52 AM)30.66 "Hg (Feb 20, 6:52 AM)
Low19 °F (Feb 27, 9:58 AM)21% (Feb 14, 3:52 PM)29.56 "Hg (Feb 20, 11:52 PM)
Average40 °F65%30.17 "Hg
* Reported Feb 12 9:52 AM — Feb 27 9:58 AM, Wichita Falls, Weather by CustomWeather, © 2015

Note: Actual official high and low records may vary slightly from our data, if they occured in-between our weather recording intervals... More about our weather records

Advertising

Wichita Falls weather history for previous 24 hours

 ConditionsComfort  
Time TempWeatherWind HumidityBarometerVisibility
9:58 AM
Fri, Feb 27
19 °FLight snow. Mostly cloudy.13 mph81%30.55 "Hg1 mi
8:52 AM20 °FLight snow. Overcast.17 mph68%30.55 "Hg1 mi
7:52 AM22 °FOvercast.18 mph48%30.51 "Hg10 mi
6:52 AM22 °FMostly cloudy.17 mph48%30.49 "Hg10 mi
5:52 AM23 °FOvercast.16 mph46%30.48 "Hg10 mi
4:52 AM24 °FOvercast.16 mph44%30.47 "Hg10 mi
3:52 AM24 °FOvercast.17 mph46%30.45 "Hg10 mi
2:52 AM23 °FClear.12 mph50%30.43 "Hg10 mi
1:52 AM23 °FClear.10 mph50%30.45 "Hg10 mi
12:52 AM26 °FOvercast.12 mph42%30.48 "Hg10 mi
11:52 PM
Thu, Feb 26
27 °FOvercast.12 mph41%30.49 "Hg10 mi
10:52 PM28 °FOvercast.9 mph39%30.49 "Hg10 mi
9:52 PM28 °FPassing clouds.14 mph39%30.47 "Hg10 mi
8:52 PM28 °FOvercast.21 mph37%30.47 "Hg10 mi
7:52 PM29 °FOvercast.14 mph41%30.44 "Hg10 mi
6:52 PM29 °FOvercast.17 mph38%30.42 "Hg10 mi
5:52 PM30 °FOvercast.21 mph36%30.40 "Hg10 mi
4:52 PM33 °FOvercast.21 mph35%30.38 "Hg10 mi
3:52 PM33 °FOvercast.18 mph40%30.37 "Hg10 mi
2:52 PM34 °FOvercast.23 mph40%30.36 "Hg10 mi
1:52 PM34 °FOvercast.21 mph42%30.36 "Hg10 mi
12:52 PM32 °FOvercast.23 mph41%30.37 "Hg10 mi
11:52 AM32 °FPartly sunny.24 mph45%30.38 "Hg10 mi
Weather by CustomWeather, © 2015

See weather overviewHow to use our weather pages